Rochester, NY

5:59 AM EST on December 08, 2019 (GMT -0500)
Greater Rochester International

Weather History for KROC - November, 2019

Change the Weather History Date:

Monday, November 11, 2019

  Actual Average Record
Temperature  
Mean Temperature 32 °F 42 °F  
Max Temperature 37 °F 50 °F 73 °F (1909)
Min Temperature 26 °F 34 °F 20 °F (1957)
Degree Days  
Heating Degree Days 34 23  
Month to date heating degree days 306 232  
Since 1 July heating degree days 729 865  
Cooling Degree Days 0 0  
Month to date cooling degree days 0 0  
Year to date cooling degree days 621 539  
Moisture  
Dew Point 28 °F    
Average Humidity 92    
Maximum Humidity 100    
Minimum Humidity 85    
Precipitation  
Precipitation 0.75 in 0.09 in 0.67 in (1991)
Month to date precipitation 0.99 1.04  
Year to date precipitation 29.69 29.74  
Snow  
Snow 8.20 in 0.20 in 5.20 in (1991)
Month to date snowfall 8.8 1.5  
Since 1 July snowfall 8.8 1.6  
Since 1 September snowfall 8.8 1.6  
Snow Depth 4.0 in    
Sea Level Pressure  
Sea Level Pressure 30.11 in    
Wind  
Wind Speed 11 mph ()    
Max Wind Speed 23 mph    
Max Gust Speed 28 mph    
Visibility 1.7 miles    
Events Fog , Rain , Snow    
T = Trace of Precipitation, MM = Missing Value Source: Averaged Metar Reports

Daily Weather History Graph

Daily Weather History Graph

Search for Another Location

Airport or City:

Astronomy

Nov. 11, 2019 Rise Set
Actual Time 6:57 AM EST 4:50 PM EST
Civil Twilight 6:27 AM EST 5:21 PM EST
Nautical Twilight 5:53 AM EST 5:55 PM EST
Astronomical Twilight 5:20 AM EST 6:28 PM EST
Moon 4:47 PM EST (11/11) 5:43 AM EST (11/11)
Length of Visible Light 10h 53m
Length of Day
9h 52m
Waxing Gibbous, 99% of the Moon is Illuminated
Nov 11
Waxing Gibbous
Nov 12
Full
Nov 19
Last Quarter
Nov 26
New
Dec 4
First Quarter

Hourly Weather History & Observations

Time (EST) Temp. Windchill Dew Point Humidity Pressure Visibility Wind Dir Wind Speed Gust Speed Precip Events Conditions
12:54 AM 37.0 °F 31.6 °F 34.0 °F 89% 30.09 in 10.0 mi North 6.9 mph - 0.00 in Rain Light Rain
1:54 AM 36.0 °F 28.5 °F 35.1 °F 97% 30.11 in 5.0 mi North 10.4 mph - 0.01 in Rain , Snow Light Rain
2:54 AM 35.1 °F 25.9 °F 34.0 °F 96% 30.12 in 4.0 mi NE 13.8 mph - 0.01 in Rain , Snow Light Rain
3:54 AM 33.1 °F 24.4 °F 32.0 °F 96% 30.14 in 3.0 mi NE 11.5 mph - 0.02 in Snow Light Snow
4:02 AM 33.1 °F 24.9 °F 32.0 °F 96% 30.12 in 2.0 mi NE 10.4 mph - 0.01 in Snow Light Snow
4:39 AM 32.0 °F 22.1 °F 30.9 °F 96% 30.12 in 1.8 mi NE 13.8 mph - 0.03 in Snow Light Snow
4:54 AM 32.0 °F 24.2 °F 30.9 °F 96% 30.15 in 2.0 mi NE 9.2 mph - 0.03 in Snow Light Snow
5:18 AM 32.0 °F 24.8 °F 30.9 °F 96% 30.13 in 1.2 mi NNE 8.1 mph - 0.01 in Snow Light Snow
5:28 AM 32.0 °F 23.6 °F 30.9 °F 96% 30.14 in 2.0 mi NE 10.4 mph - 0.02 in Snow Light Snow
5:54 AM 32.0 °F 23.0 °F 30.9 °F 96% 30.18 in 3.0 mi ENE 11.5 mph - 0.02 in Snow Light Snow
6:01 AM 32.0 °F 22.5 °F 30.9 °F 96% 30.15 in 2.0 mi ENE 12.7 mph - 0.01 in Snow Light Snow
6:33 AM 32.0 °F 24.2 °F 30.0 °F 92% 30.15 in 1.5 mi ENE 9.2 mph - 0.02 in Snow Light Snow
6:54 AM 32.0 °F 24.8 °F 30.0 °F 92% 30.19 in 2.0 mi East 8.1 mph - 0.02 in Snow Light Snow
7:14 AM 32.0 °F 24.2 °F 30.0 °F 92% 30.16 in 6.0 mi ENE 9.2 mph - 0.00 in Snow Light Snow
7:19 AM 32.0 °F 24.2 °F 30.2 °F 93% 30.16 in 2.0 mi ENE 9.2 mph - N/A Snow Light Snow
7:54 AM 32.0 °F 24.8 °F 30.0 °F 92% 30.21 in 1.5 mi East 8.1 mph - 0.00 in Snow Light Snow
8:20 AM 32.0 °F 25.6 °F 30.0 °F 92% 30.18 in 3.0 mi East 6.9 mph - 0.01 in Snow Light Snow
8:54 AM 32.0 °F 24.8 °F 28.9 °F 88% 30.20 in 5.0 mi East 8.1 mph - 0.01 in Snow Light Snow
9:54 AM 32.0 °F 23.0 °F 28.0 °F 85% 30.21 in 2.5 mi ENE 11.5 mph - 0.00 in Snow Light Snow
10:26 AM 30.9 °F 22.2 °F 28.0 °F 89% 30.18 in 1.2 mi ENE 10.4 mph - 0.01 in Snow Light Snow
10:47 AM 32.0 °F 23.6 °F 28.9 °F 88% 30.18 in 2.0 mi ENE 10.4 mph - 0.01 in Snow Light Snow
10:54 AM 30.9 °F 21.7 °F 28.9 °F 92% 30.20 in 1.5 mi ENE 11.5 mph - 0.01 in Snow Light Snow
11:00 AM 30.9 °F 21.2 °F 28.9 °F 92% 30.18 in 1.5 mi NE 12.7 mph - 0.01 in Snow Light Snow
11:11 AM 30.9 °F 21.2 °F 28.9 °F 92% 30.17 in 0.8 mi NE 12.7 mph - 0.01 in Snow Light Snow
11:32 AM 30.9 °F 19.8 °F 28.9 °F 92% 30.16 in 0.5 mi ENE 16.1 mph - 0.02 in Fog , Snow Light Snow
11:52 AM 30.2 °F 18.1 °F 28.4 °F 93% 30.14 in 1.5 mi ENE 18.4 mph - 0.03 in Snow Light Snow
11:54 AM 30.9 °F 19.1 °F 28.0 °F 89% 30.17 in 2.0 mi ENE 18.4 mph - 0.03 in Snow Light Snow
12:17 PM 30.0 °F 19.5 °F 28.0 °F 92% 30.13 in 2.0 mi ENE 13.8 mph - 0.01 in Snow Light Snow
12:24 PM 30.0 °F 19.1 °F 28.0 °F 92% 30.13 in 1.5 mi ENE 15.0 mph - 0.01 in Snow Light Snow
12:54 PM 30.0 °F 20.0 °F 27.0 °F 88% 30.16 in 1.0 mi ENE 12.7 mph - 0.01 in Snow Light Snow
12:59 PM 30.0 °F 21.1 °F 27.0 °F 88% 30.14 in 0.8 mi ENE 10.4 mph - 0.01 in Snow Light Snow
1:54 PM 28.9 °F 19.2 °F 27.0 °F 92% 30.14 in 0.5 mi ENE 11.5 mph - 0.04 in Snow Light Snow
2:02 PM 28.9 °F 17.7 °F 27.0 °F 92% 30.11 in 0.5 mi ENE 15.0 mph - 0.00 in Snow Light Snow
2:12 PM 28.9 °F 18.6 °F 27.0 °F 92% 30.11 in 1.0 mi ENE 12.7 mph - 0.01 in Snow Light Snow
2:20 PM 28.9 °F 18.6 °F 27.0 °F 92% 30.11 in 1.5 mi ENE 12.7 mph - 0.01 in Snow Light Snow
2:54 PM 28.9 °F 16.9 °F 26.1 °F 89% 30.12 in 1.5 mi ENE 17.3 mph 24.2 mph 0.03 in Snow Light Snow
3:17 PM 28.9 °F 18.2 °F 27.0 °F 92% 30.08 in 0.8 mi ENE 13.8 mph - 0.02 in Snow Light Snow
3:28 PM 28.9 °F 18.2 °F 27.0 °F 92% 30.08 in 1.5 mi ENE 13.8 mph 21.9 mph 0.03 in Snow Light Snow
3:54 PM 28.9 °F 19.8 °F 26.1 °F 89% 30.12 in 1.5 mi ENE 10.4 mph - 0.03 in Snow Light Snow
4:03 PM 28.4 °F 17.0 °F 26.6 °F 93% 30.09 in 0.5 mi ENE 15.0 mph - N/A Fog , Snow Snow
4:15 PM 28.9 °F 18.2 °F 27.0 °F 92% 30.09 in 1.5 mi NE 13.8 mph - 0.03 in Snow Light Snow
4:35 PM 28.9 °F 18.6 °F 26.1 °F 89% 30.08 in 0.8 mi ENE 12.7 mph - 0.04 in Snow Light Snow
4:54 PM 28.0 °F 18.1 °F 26.1 °F 92% 30.10 in 0.5 mi ENE 11.5 mph - 0.06 in Snow Light Snow
5:18 PM 28.0 °F 16.5 °F 27.0 °F 96% 30.07 in 0.2 mi NE 15.0 mph - 0.03 in Fog , Snow Snow
5:25 PM 28.0 °F 16.1 °F 27.0 °F 96% 30.06 in 0.2 mi NE 16.1 mph - 0.04 in Fog , Snow Snow
5:40 PM 28.0 °F 15.3 °F 26.1 °F 92% 30.04 in 0.2 mi NE 18.4 mph - 0.05 in Snow Light Snow
5:54 PM 28.0 °F 17.5 °F 27.0 °F 96% 30.07 in 0.2 mi ENE 12.7 mph - 0.09 in Fog , Snow Snow
6:54 PM 28.0 °F 16.5 °F 27.0 °F 96% 30.07 in 0.2 mi NE 15.0 mph - 0.05 in Fog , Snow Snow
7:19 PM 28.0 °F 16.1 °F 26.1 °F 92% 30.02 in 0.8 mi NE 16.1 mph - 0.04 in Snow Light Snow
7:54 PM 28.0 °F 17.0 °F 26.1 °F 92% 30.04 in 0.8 mi NE 13.8 mph - 0.07 in Snow Light Snow
8:54 PM 28.0 °F 17.0 °F 26.1 °F 92% 30.01 in 1.0 mi NE 13.8 mph - 0.06 in Snow Light Snow
9:19 PM 28.0 °F 16.5 °F 26.1 °F 92% 29.98 in 0.8 mi NNE 15.0 mph - 0.02 in Snow Light Snow
9:54 PM 27.0 °F 14.7 °F 26.1 °F 96% 30.00 in 0.5 mi NNE 16.1 mph - 0.06 in Fog , Snow Snow
10:18 PM 28.0 °F 16.5 °F 26.1 °F 92% 29.94 in 1.0 mi NE 15.0 mph - 0.02 in Snow Light Snow
10:46 PM 28.0 °F 17.5 °F 26.1 °F 92% 29.93 in 0.5 mi NE 12.7 mph - 0.04 in Fog , Snow Snow
10:54 PM 28.0 °F 17.0 °F 26.1 °F 92% 29.96 in 0.8 mi NNE 13.8 mph - 0.05 in Snow Light Snow
11:54 PM 26.1 °F 11.3 °F 23.0 °F 88% 29.97 in 0.5 mi North 23.0 mph 27.6 mph 0.04 in Fog , Snow Snow